Wind_Speed
31 30 30 29 29 28 27 25 23 21 20 19 17 16 16 16 15 15 15 15 15 15 15 14 13 14 14 12 11 11 11 11 12 12 13 13 14 14 14 14 14 15 16 16
33 33 31 31 31 30 29 27 26 24 23 21 19 18 17 16 16 16 16 15 15 15 16 15 15 15 15 14 13 12 12 12 13 14 15 15 15 15 16 16 16 16 16 16
33 33 33 34 32 32 30 29 28 27 25 23 22 20 18 17 16 16 17 17 17 17 17 17 16 16 16 16 15 14 13 14 14 15 16 17 17 17 17 17 17 17 17 18
33 34 34 33 33 32 31 30 29 28 27 26 24 23 22 20 19 18 18 19 19 18 18 18 18 18 18 17 16 16 15 15 16 17 18 18 18 19 19 18 19 19 18 18
33 33 34 35 34 32 31 31 30 29 28 27 26 25 24 22 21 20 20 20 20 19 19 19 19 19 18 18 18 17 17 18 19 19 19 19 20 20 20 20 20 20 20 19
34 32 32 34 34 32 32 32 32 30 29 27 26 26 26 25 24 23 23 22 22 21 20 20 20 20 20 20 20 19 20 20 20 20 20 21 21 21 21 20 20 21 21 21
33 32 32 34 33 32 32 32 31 30 30 29 28 28 27 26 26 25 25 25 25 24 23 22 22 22 21 21 21 22 22 22 22 21 22 21 21 22 22 22 22 22 23 23
33 32 34 35 33 33 33 32 31 30 30 30 29 29 28 28 27 27 27 27 27 26 25 24 24 24 23 23 23 23 23 23 22 22 22 22 22 23 23 23 23 24 24 24
35 35 35 34 34 34 33 32 32 31 31 31 30 29 29 29 29 29 29 29 29 29 28 27 26 26 25 24 24 23 23 23 23 23 24 23 24 24 24 24 24 24 25 25
37 37 36 35 35 35 34 34 33 32 31 31 30 30 30 30 30 29 30 30 31 31 30 30 29 29 28 28 26 26 26 25 25 25 25 25 25 25 25 25 25 25 26 26
38 38 38 37 36 36 36 35 34 34 32 31 30 30 30 30 30 31 31 32 32 32 32 32 30 30 30 29 29 28 28 28 28 28 27 27 27 27 27 27 27 27 27 27
37 38 38 38 37 37 37 36 36 35 34 33 32 31 31 30 30 30 31 32 32 32 32 32 32 32 31 31 31 31 31 30 30 29 28 28 28 28 28 29 29 29 28 28
36 37 38 38 38 37 37 37 37 36 35 34 33 33 32 32 31 31 32 32 33 33 33 33 33 33 33 33 33 33 32 32 31 31 31 31 30 30 30 30 30 30 31 31
37 37 37 37 37 37 37 36 37 37 37 35 34 34 34 34 34 34 34 34 34 34 34 35 35 35 34 34 34 34 34 33 33 33 33 32 32 32 32 32 32 32 32 33
37 37 37 36 36 37 36 36 36 36 36 36 35 35 34 34 34 35 35 34 35 35 36 36 36 36 35 35 35 35 35 34 34 34 34 33 33 33 33 33 33 33 34 34
36 36 36 36 36 36 36 36 36 36 36 36 35 35 34 34 35 35 35 35 35 35 36 36 36 36 36 35 36 36 36 34 34 34 34 34 34 34 34 34 34 34 35 35
34 35 34 34 34 34 34 35 35 35 35 35 35 35 35 35 36 37 37 37 36 36 35 35 35 35 35 36 36 36 36 35 35 36 36 35 35 35 35 35 36 36 36 36
32 33 33 33 33 33 33 33 34 34 35 35 34 34 35 35 34 36 37 37 36 36 35 35 35 36 36 37 37 37 36 36 36 37 37 36 35 35 36 36 35 36 36 37
28 30 30 31 31 32 32 32 32 32 32 32 32 32 33 33 34 34 34 35 35 35 35 35 36 36 36 35 35 36 35 35 35 36 36 36 36 36 36 36 37 38 38 37
25 26 27 27 28 29 29 29 30 30 30 31 31 32 32 33 33 33 34 34 34 35 35 35 35 35 35 35 34 34 34 34 35 36 36 36 36 36 36 37 37 38 37 37
25 25 25 25 25 26 27 28 29 29 29 30 30 30 31 31 31 32 32 33 33 34 34 34 34 34 34 35 35 35 34 35 36 35 34 34 35 35 35 35 36 36 36 36
23 23 24 24 24 24 25 26 26 26 27 27 28 29 29 30 30 30 30 30 31 31 31 32 32 33 33 33 33 33 34 34 35 35 34 34 34 34 34 34 34 35 35 35
21 21 22 22 22 22 23 23 24 25 25 26 26 26 27 27 28 28 28 28 29 29 29 30 30 30 30 31 31 31 32 32 33 33 33 33 32 32 32 32 32 32 33 33
19 19 20 20 20 21 22 22 23 23 24 24 25 25 25 25 26 26 26 26 27 27 27 27 28 28 29 29 29 29 30 30 30 30 30 30 30 30 30 31 31 31 32 32
16 16 17 18 19 20 21 21 21 22 22 22 23 23 22 22 23 23 23 23 24 24 24 24 25 25 26 27 27 27 28 28 27 27 27 28 28 29 29 30 30 30 30 31
13 13 14 15 16 17 17 18 18 19 19 19 19 20 20 20 20 20 21 22 22 22 23 23 24 25 25 25 25 25 25 25 25 26 26 27 27 27 28 28 28 28 28 29
10 11 11 12 12 13 14 14 14 15 16 16 17 18 18 18 19 19 20 21 21 22 22 23 23 24 24 24 24 24 24 24 23 23 24 24 24 25 25 26 26 27 27 27
Wind_Direction
229 231 235 235 235 236 237 237 240 245 246 252 258 262 266 270 272 275 278 282 287 295 302 306 308 310 312 314 311 306 304 308 312 314 313 310 305 300 297 296 295 291 286 285
232 234 236 236 236 237 238 239 241 244 247 250 255 258 263 267 270 270 273 276 283 291 297 300 302 305 306 309 308 304 304 305 307 308 309 307 303 298 296 294 295 296 292 290
233 235 237 237 236 238 240 242 243 246 248 250 252 256 259 263 267 269 269 270 278 287 292 293 297 299 300 303 304 302 302 304 304 306 306 303 302 299 296 295 296 297 296 293
231 233 234 237 238 239 241 242 244 245 248 249 252 254 256 259 262 266 266 267 273 280 287 291 294 294 297 296 297 297 298 302 302 303 303 301 299 298 297 296 297 297 296 295
230 233 236 238 238 238 240 242 244 245 248 249 250 252 253 254 257 260 262 266 270 275 280 285 289 289 293 293 291 295 296 299 302 301 300 300 299 296 294 294 294 295 295 296
231 231 236 241 239 239 240 243 244 245 247 248 248 249 252 252 255 257 259 264 267 271 274 279 283 287 288 289 291 293 295 297 299 298 299 299 298 297 293 291 291 291 292 293
231 233 236 238 238 238 240 242 243 244 246 247 246 248 251 252 253 256 258 261 263 266 269 274 278 283 285 286 289 291 294 295 297 295 296 297 296 297 294 290 289 290 291 291
232 234 237 239 238 238 241 242 244 244 245 246 247 248 250 251 253 254 257 258 261 265 268 272 275 280 283 285 287 290 293 294 295 295 295 295 296 295 294 292 289 289 290 291
232 234 237 240 240 241 243 244 244 244 245 246 247 248 249 250 252 254 255 256 258 261 266 270 274 279 282 285 287 290 294 295 295 294 294 294 295 294 293 292 291 290 292 292
234 235 237 239 241 242 243 244 245 245 246 247 247 248 249 250 252 255 254 255 258 260 263 267 271 275 278 282 286 287 289 291 293 294 293 293 292 292 291 291 290 291 293 293
235 236 238 239 241 242 243 245 245 246 248 248 248 249 250 251 251 253 253 254 257 258 261 264 269 272 275 278 282 283 285 288 290 291 292 292 292 291 291 290 289 289 291 292
235 236 238 239 241 242 243 245 246 247 249 250 249 250 251 253 253 254 255 257 260 261 262 264 267 269 273 276 280 282 283 285 287 288 289 290 290 291 290 290 289 289 289 290
235 236 238 239 241 242 243 244 245 246 247 249 250 250 253 254 255 256 258 259 261 263 263 265 267 269 271 274 278 280 282 283 284 285 285 286 287 288 288 288 288 287 286 287
235 237 239 239 240 242 244 245 246 246 247 249 250 252 253 254 256 257 259 260 261 263 265 266 267 269 270 273 277 279 281 282 282 283 283 283 284 285 286 286 286 285 284 286
236 238 240 241 242 243 245 247 248 248 248 249 251 252 253 254 255 256 258 261 263 264 265 266 268 270 271 273 276 277 279 280 281 282 282 282 282 282 283 284 285 285 285 286
236 238 240 240 241 243 246 248 248 248 249 250 251 252 253 254 254 255 258 261 263 264 265 266 267 268 270 272 273 275 277 278 280 281 282 282 282 282 282 282 283 285 286 286
237 237 239 241 242 244 245 247 248 248 250 250 252 253 254 255 255 255 258 261 262 264 266 267 268 268 269 271 273 274 275 277 279 280 281 282 282 281 280 281 283 284 285 286
236 237 239 242 243 244 246 246 246 248 250 251 252 254 255 256 257 257 259 260 261 263 264 266 267 268 269 271 272 273 274 276 278 280 280 281 281 281 281 282 283 285 285 285
236 237 239 240 242 243 243 245 246 248 248 250 251 253 255 257 258 259 260 260 261 262 263 266 268 268 270 271 273 274 275 277 279 280 280 280 281 281 282 282 283 285 286 286
237 238 239 240 241 242 243 244 245 247 248 251 253 254 255 256 257 259 261 262 262 262 264 266 267 268 269 271 273 274 276 278 279 279 279 280 281 281 282 283 284 285 285 286
239 240 240 240 241 242 243 244 246 246 248 250 252 254 256 258 258 259 260 261 263 264 264 265 267 268 269 271 273 274 276 277 279 280 280 281 282 283 283 284 285 285 285 287
240 240 240 240 242 243 243 244 245 246 247 249 252 254 256 258 259 260 262 264 264 264 265 266 267 268 269 271 273 275 276 278 279 280 280 281 282 282 283 285 286 287 286 286
240 239 239 239 241 242 242 243 245 247 250 252 253 255 257 258 260 262 263 264 265 267 267 267 267 268 269 271 275 277 278 279 279 279 280 281 282 283 283 285 286 287 286 286
240 240 239 239 241 242 244 246 248 250 252 253 254 255 257 259 260 261 262 264 265 266 266 268 269 270 273 275 277 278 278 279 280 280 280 281 281 282 284 285 286 286 286 286
238 238 238 239 242 245 247 248 250 251 251 252 253 254 255 256 258 259 261 264 266 267 269 271 273 275 277 278 278 278 279 279 279 280 281 282 282 284 285 286 286 287 287 287
235 238 241 243 244 246 248 249 248 247 248 250 251 252 253 255 258 260 263 265 267 270 273 275 277 278 279 279 278 278 278 280 280 280 281 283 285 285 286 288 289 289 289 290
236 237 240 242 242 242 244 244 244 246 248 250 253 256 259 260 261 263 266 267 269 273 275 276 277 276 277 278 279 278 278 279 281 283 286 287 287 288 289 289 290 291 291 291
Height
5876 5879 5882 5886 5889 5892 5895 5899 5902 5904 5905 5907 5907 5908 5908 5908 5908 5908 5908 5907 5906 5905 5903 5902 5900 5898 5896 5894 5892 5891 5890 5889 5888 5886 5885 5883 5882 5880 5879 5878 5876 5875 5873 5872
5868 5872 5875 5879 5882 5885 5889 5892 5895 5897 5899 5901 5902 5903 5903 5904 5904 5904 5904 5903 5903 5902 5900 5899 5897 5895 5894 5892 5890 5889 5888 5886 5885 5884 5882 5881 5879 5877 5876 5874 5873 5871 5869 5868
5862 5865 5868 5871 5875 5879 5882 5885 5888 5891 5894 5895 5896 5897 5898 5899 5899 5899 5899 5899 5899 5898 5897 5895 5894 5892 5891 5889 5887 5886 5885 5883 5882 5881 5879 5877 5875 5874 5872 5871 5869 5867 5865 5864
5855 5858 5861 5867 5868 5872 5875 5878 5881 5883 5886 5888 5889 5891 5892 5893 5894 5894 5894 5894 5894 5893 5893 5891 5890 5888 5887 5885 5883 5882 5881 5879 5878 5876 5874 5873 5871 5869 5868 5866 5865 5863 5861 5859
5847 5850 5854 5857 5861 5865 5868 5871 5873 5876 5878 5880 5883 5884 5886 5887 5888 5888 5889 5889 5889 5889 5888 5887 5885 5884 5882 5881 5879 5878 5876 5875 5873 5871 5869 5867 5866 5864 5863 5861 5860 5858 5857 5855
5839 5844 5847 5851 5853 5857 5861 5862 5865 5868 5871 5873 5876 5878 5879 5880 5881 5882 5883 5883 5883 5883 5883 5882 5880 5879 5878 5876 5875 5874 5872 5869 5868 5866 5864 5862 5860 5859 5857 5856 5855 5853 5852 5850
5831 5835 5839 5841 5845 5849 5854 5855 5857 5860 5863 5865 5868 5870 5872 5873 5874 5875 5876 5876 5877 5877 5877 5876 5875 5874 5873 5871 5870 5868 5866 5864 5862 5860 5859 5857 5855 5853 5852 5851 5849 5848 5846 5844
5823 5827 5831 5832 5836 5841 5844 5846 5849 5852 5855 5857 5859 5862 5863 5865 5866 5868 5868 5869 5870 5870 5870 5870 5869 5867 5866 5865 5864 5862 5860 5858 5857 5855 5853 5851 5849 5848 5846 5845 5843 5842 5840 5838
5814 5819 5820 5823 5827 5831 5834 5838 5841 5844 5847 5849 5852 5854 5856 5857 5858 5859 5860 5861 5862 5863 5863 5863 5862 5862 5860 5859 5858 5857 5855 5853 5851 5849 5847 5845 5844 5842 5840 5839 5837 5836 5834 5832
5804 5807 5811 5815 5818 5822 5825 5828 5832 5835 5838 5841 5843 5845 5847 5849 5850 5851 5852 5853 5853 5854 5854 5855 5855 5854 5854 5853 5852 5850 5849 5847 5845 5843 5841 5839 5838 5836 5834 5833 5831 5829 5827 5825
5793 5798 5801 5805 5809 5812 5816 5819 5823 5826 5829 5832 5834 5836 5838 5840 5841 5842 5843 5844 5845 5845 5846 5846 5846 5846 5846 5845 5844 5843 5842 5841 5839 5837 5835 5833 5831 5829 5827 5826 5824 5822 5820 5818
5784 5789 5792 5796 5800 5803 5806 5810 5813 5816 5820 5822 5825 5827 5829 5831 5832 5833 5835 5835 5836 5837 5837 5837 5837 5837 5837 5837 5836 5835 5834 5833 5831 5829 5827 5826 5824 5822 5820 5818 5816 5814 5812 5810
5775 5779 5783 5786 5790 5793 5796 5799 5803 5806 5809 5812 5815 5818 5820 5821 5823 5825 5825 5826 5827 5827 5828 5828 5828 5828 5828 5827 5827 5827 5826 5824 5823 5821 5819 5817 5816 5814 5812 5810 5808 5806 5804 5802
5766 5769 5773 5777 5780 5783 5786 5789 5793 5796 5799 5802 5805 5808 5810 5812 5813 5815 5816 5817 5818 5818 5818 5818 5819 5818 5818 5818 5818 5817 5817 5815 5813 5812 5810 5808 5807 5805 5803 5801 5799 5797 5795 5793
5757 5760 5764 5767 5771 5774 5777 5780 5783 5786 5789 5792 5795 5797 5800 5802 5803 5805 5806 5807 5807 5808 5808 5808 5808 5808 5808 5808 5808 5808 5807 5805 5804 5802 5800 5799 5797 5795 5794 5792 5789 5787 5785 5783
5747 5751 5755 5758 5762 5765 5768 5771 5774 5777 5779 5782 5785 5787 5789 5791 5793 5794 5796 5797 5797 5797 5798 5798 5798 5798 5798 5798 5798 5797 5796 5795 5793 5792 5791 5789 5787 5786 5784 5782 5780 5778 5776 5773
5739 5742 5746 5749 5752 5755 5758 5761 5764 5767 5770 5772 5775 5777 5779 5781 5782 5784 5785 5786 5787 5788 5787 5787 5788 5788 5788 5788 5787 5787 5786 5785 5783 5782 5780 5779 5777 5775 5774 5772 5770 5768 5765 5763
5730 5734 5737 5740 5743 5746 5749 5752 5755 5757 5760 5763 5765 5767 5769 5770 5772 5773 5775 5776 5777 5777 5777 5777 5777 5777 5777 5777 5777 5776 5775 5774 5773 5771 5770 5768 5766 5765 5763 5761 5759 5757 5755 5752
5722 5725 5728 5731 5734 5737 5740 5743 5745 5748 5751 5753 5755 5757 5759 5761 5762 5763 5764 5765 5766 5766 5767 5767 5767 5767 5767 5766 5766 5765 5764 5763 5762 5760 5759 5757 5756 5754 5752 5750 5748 5746 5744 5741
5715 5718 5720 5723 5726 5729 5731 5734 5737 5739 5741 5744 5746 5748 5749 5750 5751 5753 5754 5754 5755 5756 5756 5756 5756 5756 5756 5756 5755 5754 5753 5752 5751 5750 5748 5747 5745 5743 5741 5739 5737 5735 5732 5730
5709 5711 5713 5716 5719 5721 5724 5726 5728 5731 5733 5735 5737 5738 5740 5741 5742 5743 5744 5744 5745 5745 5745 5745 5745 5745 5745 5745 5744 5743 5742 5741 5740 5739 5737 5736 5734 5732 5730 5728 5726 5723 5721 5719
5702 5704 5707 5709 5712 5714 5716 5718 5721 5723 5724 5726 5728 5730 5731 5732 5733 5733 5734 5735 5735 5735 5735 5735 5735 5735 5735 5734 5734 5733 5732 5731 5729 5728 5727 5725 5723 5721 5719 5717 5715 5713 5711 5709
5696 5699 5701 5703 5705 5707 5709 5711 5713 5715 5717 5718 5720 5721 5722 5723 5724 5724 5725 5726 5726 5726 5726 5726 5726 5726 5725 5725 5724 5723 5721 5720 5719 5718 5716 5715 5713 5711 5709 5707 5705 5703 5700 5698
5691 5693 5695 5697 5699 5701 5702 5704 5706 5708 5709 5711 5712 5713 5714 5715 5715 5716 5716 5717 5717 5717 5717 5717 5717 5716 5716 5715 5714 5713 5712 5710 5709 5708 5706 5705 5703 5701 5700 5697 5695 5693 5691 5689
5686 5688 5690 5691 5693 5694 5696 5698 5699 5701 5702 5704 5704 5705 5706 5707 5708 5708 5709 5709 5709 5709 5709 5709 5708 5708 5707 5706 5705 5704 5703 5701 5700 5699 5697 5696 5694 5692 5690 5688 5686 5684 5681 5679
5683 5684 5685 5686 5688 5689 5690 5692 5693 5694 5696 5697 5698 5699 5699 5700 5701 5701 5702 5702 5702 5702 5701 5701 5700 5699 5699 5698 5697 5696 5694 5693 5692 5690 5689 5687 5685 5683 5681 5679 5677 5675 5672 5670
5680 5681 5682 5683 5684 5685 5686 5687 5688 5689 5690 5691 5692 5693 5693 5694 5694 5695 5695 5695 5695 5695 5694 5693 5693 5692 5691 5690 5689 5688 5687 5685 5684 5682 5681 5679 5677 5675 5673 5671 5668 5666 5664 5661